Los Angeles, CA

2:43 AM PST on January 18, 2018 (GMT -0800)
Los Angeles International

Weather History for KLAX - April, 2014

Change the Weather History Date:

Thursday, April 24, 2014

  Actual Average Record
Temperature  
Mean Temperature 65 °F 61 °F  
Max Temperature 73 °F 67 °F 82 °F (1995)
Min Temperature 56 °F 55 °F 47 °F (1963)
Degree Days  
Heating Degree Days 0 5  
Month to date heating degree days 81 133  
Since 1 July heating degree days 726 1283  
Cooling Degree Days 0 1  
Month to date cooling degree days 9 3  
Year to date cooling degree days 44 18  
Growing Degree Days 14 (Base 50)    
Moisture  
Dew Point 50 °F    
Average Humidity 58    
Maximum Humidity 78    
Minimum Humidity 38    
Precipitation  
Precipitation 0.00 in 0.01 in 0.10 in (1983)
Month to date precipitation 0.17 0.60  
Year to date precipitation 3.32 8.41  
Since 1 July precipitation 4.36  
Sea Level Pressure  
Sea Level Pressure 29.95 in    
Wind  
Wind Speed 7 mph (WSW)    
Max Wind Speed 18 mph    
Max Gust Speed 22 mph    
Visibility 10 miles    
Events      
T = Trace of Precipitation, MM = Missing Value Source: NWS Daily Summary

Daily Weather History Graph

Daily Weather History Graph

Search for Another Location

Airport or City:

Trip Planner

Search our weather history database for the weather conditions in past years. The results will help you decide how hot, cold, wet, or windy it might be!

Date:

Astronomy

Apr. 24, 2014 Rise Set
Actual Time 6:12 AM PDT 7:31 PM PDT
Civil Twilight 5:45 AM PDT 7:58 PM PDT
Nautical Twilight 5:14 AM PDT 8:29 PM PDT
Astronomical Twilight 4:41 AM PDT 9:02 PM PDT
Moon 3:12 AM PDT (4/24) 3:05 PM PDT (4/24)
Length of Visible Light 14h 12m
Length of Day
13h 19m
Waning Crescent, 23% of the Moon is Illuminated
Apr 24
Waning Crescent
Apr 28
New
May 6
First Quarter
May 14
Full
May 21
Last Quarter

Hourly Weather History & Observations

Time (PDT) Temp. Dew Point Humidity Pressure Visibility Wind Dir Wind Speed Gust Speed Precip Events Conditions
12:53 AM 61.0 °F 50.0 °F 67% 29.95 in 10.0 mi Calm Calm - N/A   Clear
1:53 AM 59.0 °F 48.9 °F 69% 29.94 in 10.0 mi Calm Calm - N/A   Partly Cloudy
2:53 AM 57.0 °F 48.9 °F 74% 29.94 in 10.0 mi Calm Calm - N/A   Partly Cloudy
3:53 AM 57.0 °F 48.9 °F 74% 29.93 in 10.0 mi Calm Calm - N/A   Partly Cloudy
4:53 AM 55.9 °F 48.0 °F 75% 29.94 in 10.0 mi East 3.5 mph - N/A   Partly Cloudy
5:53 AM 57.9 °F 50.0 °F 75% 29.95 in 10.0 mi Calm Calm - N/A   Partly Cloudy
6:53 AM 57.0 °F 50.0 °F 77% 29.97 in 10.0 mi ESE 4.6 mph - N/A   Scattered Clouds
7:53 AM 62.1 °F 52.0 °F 70% 29.99 in 10.0 mi ENE 6.9 mph - N/A   Scattered Clouds
8:53 AM 66.0 °F 52.0 °F 60% 29.99 in 10.0 mi Calm Calm - N/A   Partly Cloudy
9:53 AM 68.0 °F 48.0 °F 49% 29.99 in 10.0 mi Calm Calm - N/A   Partly Cloudy
10:53 AM 71.1 °F 45.0 °F 39% 29.99 in 9.0 mi Variable 3.5 mph - N/A   Partly Cloudy
11:53 AM 72.0 °F 46.9 °F 41% 29.99 in 10.0 mi West 12.7 mph - N/A   Partly Cloudy
12:53 PM 71.1 °F 45.0 °F 39% 29.97 in 10.0 mi West 13.8 mph - N/A   Partly Cloudy
1:53 PM 69.1 °F 51.1 °F 53% 29.96 in 10.0 mi West 15.0 mph - N/A   Clear
2:53 PM 69.1 °F 51.1 °F 53% 29.94 in 10.0 mi West 15.0 mph - N/A   Clear
3:53 PM 69.1 °F 52.0 °F 54% 29.92 in 10.0 mi West 16.1 mph - N/A   Partly Cloudy
4:53 PM 68.0 °F 50.0 °F 52% 29.92 in 10.0 mi West 17.3 mph - N/A   Partly Cloudy
5:53 PM 66.0 °F 53.1 °F 63% 29.91 in 10.0 mi WSW 13.8 mph - N/A   Partly Cloudy
6:53 PM 64.9 °F 51.1 °F 61% 29.91 in 10.0 mi WSW 12.7 mph - N/A   Scattered Clouds
7:53 PM 64.0 °F 51.1 °F 63% 29.91 in 10.0 mi WSW 6.9 mph - N/A   Scattered Clouds
8:53 PM 63.0 °F 53.1 °F 70% 29.92 in 10.0 mi West 5.8 mph - N/A   Clear
9:53 PM 62.1 °F 53.1 °F 72% 29.94 in 10.0 mi SSW 5.8 mph - N/A   Clear
10:53 PM 61.0 °F 53.1 °F 75% 29.93 in 10.0 mi WSW 3.5 mph - N/A   Clear
11:19 PM 60.8 °F 53.6 °F 77% 29.93 in 10.0 mi Calm Calm - N/A   Scattered Clouds
11:53 PM 61.0 °F 54.0 °F 78% 29.93 in 10.0 mi NNW 3.5 mph - N/A   Partly Cloudy